STARLINK-30178, 57447

Orbit data source: Space-Track

STARLINK-30178, 57447 is a payload satellite owned by SpaceX/Seattle (US) in LEO that was launched on Mon, 24 Jul 2023 UTC via an FALCON 9 launch vehicle from the Air Force Eastern Test Range (AFETR). Payload-class satellites include a variety of spacecraft equipped with specific instruments for various scientific and technological missions. These include communications satellites like Starlink; space stations such as the ISS; scientific satellites like the Hubble; Earth observation satellites from companies like Planet Labs, Umbra, and HawkEye 360; GPS; miniature CubeSats for education and research; and military/defense satellites.

Loading next visibility...
Identifier
57447, 2023-105T
Orbit
LEO
Country
Flag of USUS
Related business
Manufacturer
SpaceX/Seattle
Mission
Operational Commercial Communications
Bus & Motor
STARLINK V2M, Unknown motor
Mass
730 kg wet, ~700 kg dry
Launch date (UTC)
2023-07-24 (3 years ago)
Launch vehicle
FALCON 9
Launch site
Air Force Eastern Test Range (AFETR)
Object type
Payload
Rocket body
Debris
Shape & HBR
Box + 2 Pan, 17.7 m
Radar Cross Section
33.884 m², Large (>1 m²)

Expand to show TLE details & history
Last TLE update: 2 days ago

TLE from 2 days ago
0 STARLINK-30178
1 57447U 23105T   26171.04548661  .00001797  00000-0  74823-4 0  9991
2 57447  43.0042  41.9842 0001384 266.5020  93.5673 15.27582421161230
Epoch: 2026-06-20T01:05Z
TLE epoch observation values (Epoch: 2026-06-20T01:05:30.043Z)
Latitude
-0.00003°
Longitude
117.34324°
Altitude
482.877 km
Speed
7.626 km/s
True Right ascension
02h 47m 56s
True Declination
0° 00' 00"
Sunlit
Object was in daylight at epoch
Visualization orbit readout
Latitude
Unknown
Longitude
Unknown
Altitude
Unknown
Speed
Unknown
Apparent Right ascension
Unknown
Apparent Declination
Unknown
Sunlit
N/A
Visualization observer readout
Local Sidereal Time
21:26:16
Azimuth
Unknown
Elevation
Unknown
Doppler factor
Unknown
Orbital elements
Apogee altitude
485.936 km
Perigee altitude
484.036 km
Semi-major axis
6,863.123 km
Eccentricity
0.00014
Inclination
43.0042°
RAAN
41.9842°
Arg. of periapsis
266.502°
True anomaly
93.58313°
Mean anomaly
93.5673°
Eccentric anomaly
93.57521°
Mean motion
3.81734 °/min
Orbital period
94.31 mins
BSTAR
0.000074823
Loading maneuver chart data...
Computing Atmospheric mass density...
Loading historical data...
Loading historical data...
Loading historical data...
Loading historical data...
Loading historical data...
Loading historical data...
Loading historical data...

Documentation

Showing up to 5 results
|